User: anonymous   Login
Location: Unspecified
(0.0000°N, 0.0000°E)
Time: 14:46:55
(UTC+00:00)
Language:

ELECTRON R/B - Orbit

View from above orbital plane
View from above orbital plane
View from above satellite
View from above satellite

Ground track
Ground track

The orbit data is extracted from the following two-line orbital elements,

1 43166U 18010D   18144.93066759 +.00044097 -71144-6 +29590-3 0  9999
2 43166 082.9135 016.3824 0143346 121.3266 240.2118 15.62052967019276
Epoch (UTC): 24 May 2018 22:20:09
Eccentricity: 0.0143346
inclination: 82.9135°
perigee height: 285 km
apogee height: 478 km
right ascension of ascending node: 16.3824°
argument of perigee: 121.3266°
revolutions per day: 15.62052967
mean anomaly at epoch: 240.2118°
orbit number at epoch: 1927

The dashed part of the orbit path shows where the satellite is in the earth's shadow,  

DLR